Location: Freiburg+im+Breisgau
(48.0359°N, 7.8195°E)
Time: 08:44:53
(UTC+02:00)

ISS - Pass Details

Date: 10 February 2018
Orbit: 402 x 406 km, 51.6° (Epoch: 21 June)

Event Time Altitude Azimuth Distance (km) Brightness Sun altitude
Rises 20:07:50 0° 283° (WNW) 2,320 1.4 -24.6°
Reaches altitude 10° 20:10:46 10° 254° (WSW) 1,456 -0.1 -25.1°
Maximum altitude 20:12:21 13° 225° (SW) 1,288 -0.9 -25.4°
Enters shadow 20:12:44 13° 217° (SW) 1,299 -1.0 -25.4°
